| time (UTC) | temp C | wind direction | speed KPH | gust KPH | rain 1hr cm | rain 24hr cm | rain mn cm | humidity % | barometer mb |
| 20260904200004 | 17 | 185 | 1.6 | 11.3 | 0.00 | 0.00 | 0.00 | 72 | 1013.7 |
| 20260904194609 | 18 | 242 | 0.0 | 11.3 | 0.00 | 0.00 | 0.00 | 74 | 1013.8 |
| 20260904193100 | 16 | 171 | 3.2 | 11.3 | 0.00 | 0.00 | 0.00 | 75 | 1013.9 |
| 20260904191559 | 17 | 177 | 1.6 | 6.4 | 0.00 | 0.00 | 0.00 | 77 | 1013.7 |
| 20260904190059 | 16 | 182 | 0.0 | 6.4 | 0.00 | 0.00 | 0.00 | 78 | 1013.7 |
| 20260904184557 | 17 | 259 | 3.2 | 6.4 | 0.00 | 0.00 | 0.00 | 74 | 1013.7 |
| 20260904183111 | 17 | 186 | 0.0 | 8.0 | 0.00 | 0.00 | 0.00 | 77 | 1013.7 |
| 20260904181553 | 16 | 160 | 0.0 | 8.0 | 0.00 | 0.00 | 0.00 | 78 | 1013.5 |
| 20260904180051 | 16 | 40 | 0.0 | 9.7 | 0.00 | 0.00 | 0.00 | 80 | 1013.5 |
| 20260904174548 | 15 | 173 | 1.6 | 11.3 | 0.00 | 0.00 | 0.00 | 81 | 1013.6 |
| 20260904173045 | 15 | 296 | 1.6 | 12.9 | 0.00 | 0.00 | 0.00 | 84 | 1013.6 |
| 20260904171543 | 14 | 174 | 1.6 | 8.0 | 0.00 | 0.00 | 0.00 | 85 | 1013.5 |
| 20260904170039 | 13 | 95 | 3.2 | 8.0 | 0.00 | 0.00 | 0.00 | 86 | 1013.6 |
| 20260904164536 | 13 | 157 | 1.6 | 4.8 | 0.00 | 0.00 | 0.00 | 87 | 1013.4 |
| 20260904163034 | 13 | 175 | 3.2 | 8.0 | 0.00 | 0.00 | 0.00 | 88 | 1013.4 |
| 20260904161531 | 13 | 125 | 0.0 | 3.2 | 0.00 | 0.00 | 0.00 | 90 | 1013.3 |
| 20260904160027 | 13 | 125 | 1.6 | 4.8 | 0.00 | 0.00 | 0.00 | 90 | 1013.3 |
| 20260904154525 | 12 | 125 | 0.0 | 1.6 | 0.00 | 0.00 | 0.00 | 91 | 1013.2 |
| 20260904153023 | 12 | 125 | 0.0 | 0.0 | 0.00 | 0.00 | 0.00 | 92 | 1013.2 |
| 20260904151521 | 12 | 125 | 0.0 | 0.0 | 0.00 | 0.00 | 0.00 | 92 | 1013.0 |
| 20260904150025 | 11 | 125 | 0.0 | 0.0 | 0.00 | 0.00 | 0.00 | 92 | 1012.9 |
| 20260904144513 | 11 | 125 | 0.0 | 0.0 | 0.00 | 0.00 | 0.00 | 92 | 1012.6 |
| 20260904143011 | 11 | 125 | 0.0 | 0.0 | 0.00 | 0.00 | 0.00 | 92 | 1012.5 |
| 20260904141507 | 11 | 125 | 0.0 | 0.0 | 0.00 | 0.00 | 0.00 | 92 | 1012.3 |
| 20260904140005 | 11 | 125 | 0.0 | 0.0 | 0.00 | 0.00 | 0.00 | 92 | 1012.1 |
| 20260904134504 | 11 | 125 | 0.0 | 0.0 | 0.00 | 0.00 | 0.00 | 92 | 1011.9 |
| 20260904133002 | 11 | 125 | 0.0 | 0.0 | 0.00 | 0.00 | 0.00 | 91 | 1011.9 |
| 20260904131503 | 11 | 125 | 0.0 | 0.0 | 0.00 | 0.00 | 0.00 | 92 | 1011.7 |
| 20260904130107 | 11 | 125 | 0.0 | 0.0 | 0.00 | 0.00 | 0.00 | 92 | 1011.8 |
| 20260904124607 | 11 | 125 | 0.0 | 1.6 | 0.00 | 0.00 | 0.00 | 92 | 1011.8 |
| 20260904123058 | 11 | 125 | 0.0 | 0.0 | 0.00 | 0.00 | 0.00 | 92 | 1011.7 |
| 20260904121557 | 11 | 125 | 0.0 | 0.0 | 0.00 | 0.00 | 0.00 | 92 | 1011.4 |
| 20260904120108 | 11 | 125 | 0.0 | 0.0 | 0.00 | 0.00 | 0.00 | 92 | 1011.3 |
| 20260904114552 | 11 | 125 | 0.0 | 0.0 | 0.00 | 0.00 | 0.00 | 92 | 1011.0 |
| 20260904113051 | 11 | 125 | 0.0 | 1.6 | 0.00 | 0.00 | 0.00 | 92 | 1011.0 |
| 20260904111551 | 11 | 121 | 0.0 | 0.0 | 0.00 | 0.00 | 0.00 | 92 | 1010.9 |
| 20260904110053 | 11 | 121 | 0.0 | 0.0 | 0.00 | 0.00 | 0.00 | 92 | 1010.8 |
| 20260904104549 | 10 | 121 | 0.0 | 0.0 | 0.00 | 0.00 | 0.00 | 92 | 1010.9 |
| 20260904103048 | 10 | 121 | 0.0 | 0.0 | 0.00 | 0.00 | 0.00 | 92 | 1010.7 |
| 20260904101547 | 10 | 121 | 0.0 | 0.0 | 0.00 | 0.00 | 0.00 | 92 | 1010.5 |
| 20260904100049 | 10 | 121 | 0.0 | 0.0 | 0.00 | 0.00 | 0.00 | 92 | 1010.6 |
| 20260904094546 | 10 | 121 | 0.0 | 0.0 | 0.00 | 0.00 | 0.00 | 92 | 1010.8 |
| 20260904093046 | 10 | 121 | 0.0 | 0.0 | 0.00 | 0.00 | 0.00 | 91 | 1010.6 |
| 20260904091545 | 10 | 121 | 0.0 | 0.0 | 0.00 | 0.00 | 0.00 | 91 | 1010.6 |
| 20260904090043 | 10 | 121 | 0.0 | 0.0 | 0.00 | 0.00 | 0.00 | 90 | 1010.7 |
| 20260904084542 | 10 | 121 | 0.0 | 0.0 | 0.00 | 0.00 | 0.00 | 90 | 1010.6 |
| 20260904083041 | 10 | 121 | 0.0 | 0.0 | 0.00 | 0.00 | 0.00 | 90 | 1010.6 |
| 20260904081548 | 10 | 121 | 0.0 | 0.0 | 0.00 | 0.00 | 0.00 | 89 | 1010.5 |
| 20260904080040 | 10 | 121 | 0.0 | 0.0 | 0.00 | 0.00 | 0.00 | 89 | 1010.7 |
| 20260904074539 | 11 | 121 | 0.0 | 0.0 | 0.00 | 0.00 | 0.00 | 89 | 1010.6 |
| 20260904073035 | 11 | 121 | 0.0 | 0.0 | 0.00 | 0.00 | 0.00 | 88 | 1010.6 |
| 20260904071533 | 11 | 121 | 0.0 | 0.0 | 0.00 | 0.00 | 0.00 | 88 | 1010.5 |
| 20260904070031 | 11 | 121 | 0.0 | 0.0 | 0.00 | 0.00 | 0.00 | 88 | 1010.4 |
| 20260904064528 | 11 | 121 | 0.0 | 0.0 | 0.00 | 0.00 | 0.00 | 87 | 1010.3 |
| 20260904063028 | 11 | 121 | 0.0 | 0.0 | 0.00 | 0.00 | 0.00 | 87 | 1010.5 |
| 20260904061539 | 11 | 121 | 0.0 | 0.0 | 0.00 | 0.00 | 0.00 | 86 | 1010.5 |
| 20260904060026 | 11 | 121 | 0.0 | 0.0 | 0.00 | 0.00 | 0.00 | 85 | 1010.5 |
| 20260904054524 | 11 | 121 | 0.0 | 0.0 | 0.00 | 0.00 | 0.00 | 84 | 1010.4 |
| 20260904053022 | 11 | 121 | 0.0 | 0.0 | 0.00 | 0.00 | 0.00 | 83 | 1010.4 |
| 20260904051522 | 12 | 121 | 0.0 | 0.0 | 0.00 | 0.00 | 0.00 | 82 | 1010.3 |
| 20260904050021 | 12 | 121 | 0.0 | 0.0 | 0.00 | 0.00 | 0.00 | 81 | 1010.3 |
| 20260904044527 | 12 | 121 | 0.0 | 0.0 | 0.00 | 0.00 | 0.00 | 80 | 1010.2 |
| 20260904043020 | 12 | 121 | 0.0 | 0.0 | 0.00 | 0.00 | 0.00 | 79 | 1010.2 |
| 20260904041512 | 12 | 121 | 0.0 | 0.0 | 0.00 | 0.00 | 0.00 | 78 | 1010.2 |
| 20260904040011 | 13 | 121 | 0.0 | 0.0 | 0.00 | 0.00 | 0.00 | 77 | 1010.1 |
| 20260904034508 | 13 | 121 | 0.0 | 0.0 | 0.00 | 0.00 | 0.00 | 77 | 1010.0 |
| 20260904033006 | 13 | 121 | 0.0 | 0.0 | 0.00 | 0.00 | 0.00 | 76 | 1009.9 |
| 20260904031506 | 14 | 121 | 0.0 | 1.6 | 0.00 | 0.00 | 0.00 | 74 | 1009.8 |
| 20260904030015 | 15 | 121 | 0.0 | 1.6 | 0.00 | 0.00 | 0.00 | 74 | 1009.8 |
| 20260904024505 | 15 | 121 | 0.0 | 3.2 | 0.00 | 0.00 | 0.00 | 73 | 1009.7 |
| 20260904023004 | 15 | 121 | 0.0 | 0.0 | 0.00 | 0.00 | 0.00 | 71 | 1009.7 |
| 20260904021508 | 16 | 121 | 0.0 | 0.0 | 0.00 | 0.00 | 0.00 | 71 | 1009.5 |
| 20260904020004 | 16 | 122 | 0.0 | 1.6 | 0.00 | 0.00 | 0.00 | 70 | 1009.5 |
| 20260904014505 | 16 | 122 | 0.0 | 3.2 | 0.00 | 0.03 | 0.00 | 70 | 1009.4 |
| 20260904013003 | 17 | 11 | 0.0 | 3.2 | 0.00 | 0.03 | 0.00 | 69 | 1009.4 |
| 20260904011503 | 17 | 171 | 0.0 | 3.2 | 0.00 | 0.03 | 0.00 | 67 | 1009.2 |
| 20260904010002 | 17 | 281 | 0.0 | 3.2 | 0.00 | 0.03 | 0.00 | 67 | 1009.3 |
| 20260904004502 | 17 | 190 | 1.6 | 9.7 | 0.00 | 0.05 | 0.00 | 66 | 1009.2 |
| 20260904003002 | 18 | 111 | 0.0 | 4.8 | 0.00 | 0.05 | 0.00 | 65 | 1009.2 |
| 20260904000100 | 18 | 273 | 1.6 | 8.0 | 0.00 | 0.05 | 0.00 | 62 | 1009.2 |
| 20260903234600 | 18 | 149 | 0.0 | 9.7 | 0.00 | 0.05 | 0.00 | 64 | 1009.2 |
| 20260903233059 | 18 | 178 | 3.2 | 11.3 | 0.00 | 0.05 | 0.00 | 62 | 1009.4 |
| 20260903231606 | 18 | 176 | 3.2 | 8.0 | 0.00 | 0.05 | 0.00 | 61 | 1009.4 |
| 20260903230100 | 19 | 172 | 3.2 | 8.0 | 0.00 | 0.05 | 0.00 | 60 | 1009.4 |
| 20260903224556 | 19 | 196 | 1.6 | 6.4 | 0.00 | 0.05 | 0.00 | 58 | 1009.4 |
| 20260903223058 | 19 | 170 | 1.6 | 6.4 | 0.00 | 0.05 | 0.00 | 58 | 1009.5 |
| 20260903221557 | 18 | 167 | 0.0 | 6.4 | 0.00 | 0.05 | 0.00 | 61 | 1009.6 |
| 20260903220117 | 18 | 186 | 0.0 | 4.8 | 0.00 | 0.05 | 0.00 | 60 | 1009.8 |
| 20260903214550 | 18 | 143 | 0.0 | 3.2 | 0.00 | 0.05 | 0.00 | 62 | 1009.9 |
| 20260903213050 | 17 | 229 | 0.0 | 3.2 | 0.00 | 0.05 | 0.00 | 63 | 1010.0 |
| 20260903211554 | 17 | 174 | 0.0 | 4.8 | 0.00 | 0.05 | 0.00 | 61 | 1010.0 |
| 20260903210051 | 17 | 350 | 0.0 | 3.2 | 0.00 | 0.05 | 0.00 | 63 | 1009.9 |
| 20260903204546 | 17 | 15 | 0.0 | 3.2 | 0.00 | 0.05 | 0.00 | 65 | 1009.9 |
| 20260903203045 | 17 | 211 | 0.0 | 4.8 | 0.00 | 0.05 | 0.00 | 64 | 1009.8 |
| 20260903201545 | 17 | 215 | 0.0 | 4.8 | 0.00 | 0.05 | 0.00 | 65 | 1009.8 |